SBGL Airport Information

Runway Information
Runway 10 Length 13123 ft width 148 ft
Elevation 16 ft Threshold 0 ft Heading 74
Runway 28 Length 13123 ft Width 148 ft
Elevation 28 ft Threshold 0 ft Heading 254
Runway 15 Length 10433 ft width 154 ft
Elevation 16 ft Threshold 0 ft Heading 125
Runway 33 Length 10433 ft Width 154 ft
Elevation 11 ft Threshold 0 ft Heading 305
Airport Frequencies
Type APP Name RIO APP Frequency 119.35 MHZ
Type ATIS Name ATIS Frequency 127.6 MHZ
Type CLD Name CLNC DEL Frequency 121 MHZ
Type GND Name GND Frequency 121.65 MHZ
Type OPS Name OPS Frequency 122.5 MHZ
Type TWR Name TWR Frequency 118 MHZ
Airport Navaids
Type VOR-DME Name Caxias Frequency 113000 KHZ
Type NDB Name Caxias Frequency 400 KHZ
Type NDB Name Meriti Frequency 290 KHZ
Type VOR-DME Name Porto Frequency 114600 KHZ
Type NDB Name Ilha Frequency 330 KHZ
Airport Weather Information & NOTAM
ADDS - METARS form results

(2227 UTC 20 June 2018)
 
METAR text: SBGL 202200Z 14005KT CAVOK 22/18 Q1021
Conditions at: SBGL (GALEAO/RIO(CIV/M, BR) observed 2200 UTC 20 June 2018
Temperature: 22.0°C (72°F)
Dewpoint: 18.0°C (64°F) [RH = 78%]
Pressure (altimeter): 30.15 inches Hg (1021.0 mb)
Winds: from the SE (140 degrees) at 6 MPH (5 knots; 2.6 m/s)
Visibility: 6 or more miles (10+ km)
Ceiling: ceiling and visibility are OK
Clouds: unknown
Weather: no significant weather observed at this time